EGCC

Manchester International Airport

Airport
ICAO code
EGCC
IATA Code
MAN
Summary
ICAO Region
EUR
ICAO Territory
Location

Ringway, Manchester, England,

Serving
Manchester
Coordinates
53° 21' 32" N , 2° 16' 27" W
KCC
Metar
EGCC 260120Z AUTO 03012KT 9999 NCD 04/02 Q1006 NOSIG

Description

International airport serving Greater Manchester and the north-west region of England; has a co-located railway station with frequent services to many northern England destinations. Trades commercially as "Manchester International Airport"

Climatology

Temperate Marine climate/Oceanic climate (Köppen climate classification Cfb). Moderately cool summer and comparatively warm winter with a temperature range of only 14°C. Prevailing south-westerly winds from the Atlantic Ocean.

Runways

Designator Length Width Surface Rops
05R/23L 3047 46 CON Yes/Yes
05L/23R 3048 46 ASP Yes/Yes

SKYbrary Partners:

Safety knowledge contributed by: